Weather History for KCDD - June, 2013

Change the Weather History Date:

Wednesday, June 12, 2013

  Actual Average Record
Temperature  
Mean Temperature 57 °F -  
Max Temperature 73 °F 68 °F - (-1)
Min Temperature 41 °F 46 °F - (-1)
Degree Days  
Heating Degree Days 8    
Growing Degree Days 7 (Base 50)    
Moisture  
Dew Point 46 °F    
Average Humidity 64    
Maximum Humidity 100    
Minimum Humidity 36    
Precipitation  
Precipitation 0.00 in - - ()
Sea Level Pressure  
Sea Level Pressure 29.94 in    
Wind  
Wind Speed 2 mph (NNW)    
Max Wind Speed 10 mph    
Max Gust Speed 17 mph    
Visibility 10 miles    
Events      
Averages and records for this station are not official NWS values.
T = Trace of Precipitation, MM = Missing Value Source: NWS Daily Summary

Daily Weather History Graph

Daily Weather History Graph

Search for Another Location

Airport or City:

Trip Planner

Search our weather history database for the weather conditions in past years. The results will help you decide how hot, cold, wet, or windy it might be!

Date:

Astronomy

Jun. 12, 2013 Rise Set
Actual Time 5:08 AM CDT 9:11 PM CDT
Civil Twilight 4:27 AM CDT 9:52 PM CDT
Nautical Twilight 3:29 AM CDT 10:50 PM CDT
Astronomical Twilight 1:50 AM CDT 12:31 AM CDT
Moon 9:02 AM CDT (6/12) 11:30 PM CDT (6/12)
Length of Visible Light 17h 25m
Length of Day
16h 02m
Waxing Crescent, 14% of the Moon is Illuminated
Jun 12
Waxing Crescent
Jun 16
First Quarter
Jun 23
Full
Jun 29
Last Quarter
Jul 8
New

Hourly Weather History & Observations

Time (CDT) Temp. Dew Point Humidity Pressure Visibility Wind Dir Wind Speed Gust Speed Precip Events Conditions
12:13 AM 46.4 °F 44.6 °F 93% 29.91 in 10.0 mi Calm Calm - N/A   Clear
12:33 AM 46.4 °F 42.8 °F 87% 29.91 in 10.0 mi Calm Calm - N/A   Clear
12:53 AM 44.6 °F 42.8 °F 93% 29.91 in 10.0 mi Calm Calm - N/A   Clear
1:13 AM 44.6 °F 42.8 °F 93% 29.91 in 10.0 mi Calm Calm - N/A   Clear
1:33 AM 44.6 °F 42.8 °F 93% - 10.0 mi Calm Calm - N/A   Clear
1:53 AM 44.6 °F 41.0 °F 87% 29.91 in 10.0 mi Calm Calm - N/A   Clear
2:13 AM 42.8 °F 41.0 °F 93% 29.91 in 10.0 mi Calm Calm - N/A   Clear
2:33 AM 42.8 °F 41.0 °F 93% 29.91 in 10.0 mi Calm Calm - N/A   Clear
2:54 AM 42.8 °F 41.0 °F 93% 29.91 in 10.0 mi Calm Calm - N/A   Clear
3:13 AM 42.8 °F 39.2 °F 87% 29.91 in 10.0 mi Calm Calm - N/A   Clear
3:33 AM 42.8 °F 39.2 °F 87% 29.91 in 10.0 mi Calm Calm - N/A   Clear
3:53 AM 42.8 °F 39.2 °F 87% 29.92 in 10.0 mi Calm Calm - N/A   Clear
4:13 AM 41.0 °F 39.2 °F 93% 29.92 in 10.0 mi Calm Calm - N/A   Clear
4:33 AM 41.0 °F 39.2 °F 93% 29.92 in 10.0 mi Calm Calm - N/A   Clear
4:53 AM 41.0 °F 39.2 °F 93% 29.92 in 10.0 mi Calm Calm - N/A   Clear
5:13 AM 41.0 °F 39.2 °F 93% 29.92 in 10.0 mi Calm Calm - N/A   Mostly Cloudy
5:33 AM 42.8 °F 39.2 °F 87% 29.93 in 10.0 mi Calm Calm - N/A   Mostly Cloudy
5:53 AM 42.8 °F 41.0 °F 93% 29.93 in 10.0 mi Calm Calm - N/A   Mostly Cloudy
6:13 AM 44.6 °F 42.8 °F 93% 29.94 in 10.0 mi Calm Calm - N/A   Mostly Cloudy
6:33 AM 44.6 °F 42.8 °F 93% 29.94 in 10.0 mi Calm Calm - N/A   Scattered Clouds
6:53 AM 48.2 °F 46.4 °F 93% 29.94 in 10.0 mi Calm Calm - N/A   Scattered Clouds
7:13 AM 51.8 °F 51.8 °F 100% 29.93 in 10.0 mi Calm Calm - N/A   Clear
7:33 AM 55.4 °F 53.6 °F 94% 29.93 in 10.0 mi Calm Calm - N/A   Clear
7:53 AM 59.0 °F 55.4 °F 88% 29.92 in 10.0 mi Calm Calm - N/A   Clear
8:13 AM 60.8 °F 57.2 °F 88% 29.92 in 10.0 mi Calm Calm - N/A   Clear
8:33 AM 62.6 °F 57.2 °F 82% 29.92 in 10.0 mi Calm Calm - N/A   Clear
8:53 AM 64.4 °F 57.2 °F 77% 29.93 in 10.0 mi NW 3.5 mph - N/A   Clear
9:13 AM 66.2 °F 57.2 °F 73% 29.93 in 10.0 mi NW 3.5 mph - N/A   Clear
9:33 AM 66.2 °F 55.4 °F 68% 29.93 in 10.0 mi NW 3.5 mph - N/A   Clear
9:53 AM 68.0 °F 55.4 °F 64% 29.93 in 10.0 mi NW 4.6 mph - N/A   Clear
10:13 AM 69.8 °F 53.6 °F 56% 29.93 in 10.0 mi NNE 4.6 mph - N/A   Clear
10:33 AM 69.8 °F 53.6 °F 56% 29.93 in 10.0 mi NNE 3.5 mph - N/A   Clear
10:53 AM 71.6 °F 51.8 °F 50% 29.93 in 10.0 mi North 4.6 mph - N/A   Clear
11:13 AM 71.6 °F 48.2 °F 43% 29.93 in 10.0 mi NNE 5.8 mph - N/A   Scattered Clouds
11:33 AM 71.6 °F 48.2 °F 43% 29.94 in 10.0 mi North 6.9 mph - N/A   Scattered Clouds
11:53 AM 71.6 °F 48.2 °F 43% 29.94 in 10.0 mi NNE 4.6 mph - N/A   Scattered Clouds
12:13 PM 71.6 °F 48.2 °F 43% 29.93 in 10.0 mi North 6.9 mph - N/A   Scattered Clouds
12:33 PM 71.6 °F 46.4 °F 41% 29.94 in 10.0 mi NW 6.9 mph - N/A   Scattered Clouds
12:53 PM 73.4 °F 46.4 °F 38% 29.93 in 10.0 mi North 9.2 mph 16.1 mph N/A   Scattered Clouds
1:13 PM 71.6 °F 46.4 °F 41% 29.94 in 10.0 mi North 10.4 mph - N/A   Scattered Clouds
1:33 PM 71.6 °F 46.4 °F 41% 29.93 in 10.0 mi North 6.9 mph - N/A   Scattered Clouds
1:53 PM 73.4 °F 46.4 °F 38% 29.93 in 10.0 mi North 10.4 mph 17.3 mph N/A   Clear
2:13 PM 73.4 °F 46.4 °F 38% 29.93 in 10.0 mi NW 8.1 mph - N/A   Clear
2:33 PM 73.4 °F 46.4 °F 38% 29.93 in 10.0 mi NNE 6.9 mph - N/A   Scattered Clouds
2:53 PM 73.4 °F 46.4 °F 38% 29.93 in 10.0 mi NNE 6.9 mph - N/A   Scattered Clouds
3:13 PM 73.4 °F 44.6 °F 36% 29.93 in 10.0 mi NNW 10.4 mph - N/A   Clear
3:33 PM 71.6 °F 46.4 °F 41% 29.93 in 10.0 mi NNW 9.2 mph 16.1 mph N/A   Clear
3:53 PM 71.6 °F 46.4 °F 41% 29.93 in 10.0 mi NNW 8.1 mph - N/A   Clear
4:13 PM 71.6 °F 44.6 °F 38% 29.93 in 10.0 mi North 5.8 mph - N/A   Scattered Clouds
4:33 PM 71.6 °F 46.4 °F 41% 29.93 in 10.0 mi NNW 8.1 mph - N/A   Scattered Clouds
4:53 PM 71.6 °F 44.6 °F 38% 29.93 in 10.0 mi NNW 10.4 mph 17.3 mph N/A   Mostly Cloudy
5:13 PM 69.8 °F 44.6 °F 40% 29.93 in 10.0 mi NNW 5.8 mph - N/A   Scattered Clouds
5:33 PM 71.6 °F 44.6 °F 38% 29.93 in 10.0 mi NNW 5.8 mph - N/A   Scattered Clouds
5:53 PM 71.6 °F 44.6 °F 38% 29.93 in 10.0 mi North 4.6 mph - N/A   Scattered Clouds
6:13 PM 71.6 °F 44.6 °F 38% 29.93 in 10.0 mi NNW 5.8 mph - N/A   Clear
6:33 PM 69.8 °F 44.6 °F 40% 29.93 in 10.0 mi North 5.8 mph - N/A   Clear
6:53 PM 69.8 °F 46.4 °F 43% 29.93 in 10.0 mi North 3.5 mph - N/A   Scattered Clouds
7:13 PM 69.8 °F 46.4 °F 43% 29.94 in 10.0 mi NNW 5.8 mph - N/A   Mostly Cloudy
7:33 PM 68.0 °F 46.4 °F 46% 29.94 in 10.0 mi North 6.9 mph - N/A   Overcast
7:53 PM 69.8 °F 46.4 °F 43% 29.94 in 10.0 mi North 8.1 mph - N/A   Scattered Clouds
8:13 PM 68.0 °F 46.4 °F 46% 29.95 in 10.0 mi NNW 8.1 mph - N/A   Clear
8:33 PM 64.4 °F 46.4 °F 52% 29.95 in 10.0 mi NNW 3.5 mph - N/A   Clear
8:53 PM 64.4 °F 46.4 °F 52% 29.96 in 10.0 mi NNW 4.6 mph - N/A   Scattered Clouds
9:13 PM 64.4 °F 48.2 °F 56% 29.96 in 10.0 mi NNW 3.5 mph - N/A   Scattered Clouds
9:33 PM 62.6 °F 48.2 °F 59% 29.97 in 10.0 mi NNW 4.6 mph - N/A   Scattered Clouds
9:53 PM 60.8 °F 46.4 °F 59% 29.98 in 10.0 mi Calm Calm - N/A   Clear
10:13 PM 60.8 °F 48.2 °F 63% 30.00 in 10.0 mi Calm Calm - N/A   Clear
10:33 PM 60.8 °F 46.4 °F 59% 30.00 in 10.0 mi NNW 4.6 mph - N/A   Clear
10:53 PM 59.0 °F 48.2 °F 67% 30.00 in 10.0 mi NNW 3.5 mph - N/A   Clear
11:13 PM 59.0 °F 48.2 °F 67% 30.01 in 10.0 mi Calm Calm - N/A   Clear
11:33 PM 57.2 °F 48.2 °F 72% 30.02 in 10.0 mi Calm Calm - N/A   Clear
11:53 PM 55.4 °F 48.2 °F 77% 30.02 in 10.0 mi Calm Calm - N/A   Clear